RH
15 14 15 16 22 24 25 26 24 23 26 29 40 47 44 71 91 82 82 91 82 100 100 98 100 100 98 94 91 93 62 46 47 48 54 63 62 59 52 44 49 55 63 70
16 16 17 20 26 24 22 22 24 21 23 29 39 38 38 44 59 60 49 54 60 63 74 60 77 97 90 90 80 66 46 37 37 41 42 40 41 44 46 47 53 54 64 70
18 16 17 17 17 20 22 21 18 16 17 34 26 25 27 34 33 41 51 50 65 87 100 72 76 75 81 75 70 59 45 30 32 42 53 44 56 63 68 68 72 73 80 87
19 19 19 18 18 21 25 20 18 16 22 20 27 26 32 42 42 47 62 62 70 82 88 89 74 71 69 79 78 78 69 47 53 61 59 50 65 63 57 56 55 54 56 63
19 21 23 21 25 28 29 27 32 21 20 25 25 24 25 31 42 44 38 34 39 55 63 65 59 51 63 79 81 78 71 91 100 100 100 100 100 100 87 74 64 58 55 57
20 24 27 27 29 37 42 31 26 29 32 30 26 24 22 17 15 20 26 19 21 34 36 34 39 41 52 57 59 54 92 100 99 100 99 100 100 86 64 57 58 63 60 66
22 23 26 34 46 60 48 45 32 22 28 32 32 33 32 24 19 16 15 16 16 23 25 31 31 36 38 32 58 94 70 65 60 56 62 72 82 76 72 69 61 53 55 54
25 23 34 34 47 38 38 37 39 45 42 43 39 35 29 24 22 24 27 28 30 33 31 30 32 28 35 56 63 55 48 43 50 59 68 68 57 50 48 49 45 44 54 65
23 31 36 37 41 41 45 46 43 42 42 44 41 36 30 29 26 27 26 28 34 48 45 44 58 68 56 64 68 61 50 57 64 65 63 51 52 64 70 58 61 77 87 90
26 25 32 42 40 38 28 30 32 32 28 27 29 34 39 31 27 26 28 49 60 61 62 58 50 48 56 62 63 66 71 62 54 53 58 72 82 82 78 70 61 52 47 48
22 23 26 28 25 21 21 22 24 25 27 27 24 41 47 38 28 28 43 44 44 46 47 46 42 39 39 45 52 59 61 63 78 96 99 92 74 57 49 42 41 43 42 41
21 24 24 24 22 22 23 22 21 20 25 31 29 52 51 52 46 68 59 51 48 50 46 34 33 43 54 68 66 76 97 100 86 79 67 57 47 44 45 44 43 41 44 37
20 22 22 19 20 20 22 30 36 44 47 45 40 33 35 33 39 45 52 50 47 50 50 65 83 96 89 99 99 82 70 76 89 66 48 48 51 52 46 42 39 36 27 19
18 18 18 20 26 38 71 84 82 79 94 78 86 62 57 58 60 66 61 59 81 93 96 92 90 99 84 63 62 82 88 71 54 52 50 55 50 42 29 24 20 16 12 10
34 32 36 48 49 50 64 59 69 83 82 64 72 82 75 71 65 61 76 93 81 70 74 80 74 65 61 60 72 67 56 52 54 56 51 43 35 24 19 15 13 12 11 12
61 56 56 100 71 72 94 80 86 86 88 81 66 65 68 72 80 89 79 66 85 82 68 56 50 60 62 66 66 56 58 62 57 45 35 30 19 16 14 13 11 11 11 9
58 52 58 82 88 78 96 82 83 70 64 61 64 69 80 88 76 65 56 73 76 65 58 49 61 71 75 62 54 54 63 53 38 32 27 17 15 16 15 14 12 10 10 10
66 64 63 54 50 54 65 48 50 47 46 54 67 58 46 44 53 64 84 79 61 87 85 77 72 63 56 59 54 54 50 32 25 23 18 17 17 17 17 15 14 14 14 13
58 60 56 57 47 53 83 61 60 54 60 58 53 48 49 62 67 65 55 65 87 100 98 87 68 58 62 54 59 55 32 26 21 19 19 18 18 17 16 17 16 15 14 12
75 66 65 56 53 54 64 54 48 46 44 43 44 47 50 48 53 62 64 62 65 70 69 73 61 64 72 64 52 37 24 22 18 18 18 17 16 15 14 13 13 12 11 11
76 59 62 57 66 54 51 41 39 41 40 44 48 45 48 59 65 64 56 57 62 76 67 69 70 72 63 56 38 26 20 18 16 15 15 15 14 12 12 11 10 10 10 9
46 45 53 56 43 38 36 34 41 44 42 45 46 57 70 67 68 66 68 83 91 78 88 86 79 68 62 44 24 19 18 16 14 14 14 13 11 11 10 10 9 9 7 6
55 68 59 49 41 37 38 49 52 48 53 54 61 76 71 74 82 78 80 82 75 71 78 67 56 54 36 22 18 17 15 14 13 13 12 10 10 10 9 9 8 6 5 6
63 76 80 48 69 52 65 72 78 100 100 100 92 77 78 80 88 94 70 67 67 68 65 60 49 28 20 19 17 15 13 12 12 12 11 10 10 9 8 6 5 5 5 6
78 80 52 42 59 55 84 95 100 97 81 71 74 87 100 99 100 81 77 69 66 61 52 40 26 19 15 13 12 12 11 12 11 10 10 10 9 7 5 5 5 5 6 6
95 74 66 62 79 82 100 100 84 77 81 90 99 98 96 86 83 78 72 72 61 44 33 21 17 14 12 11 10 10 10 10 10 10 9 8 5 5 5 5 5 6 5 6
Wind_Speed
4 6 3 1 4 5 8 11 12 10 8 7 7 7 5 6 5 9 12 12 12 13 20 22 25 29 30 31 33 32 36 38 39 40 43 47 49 51 49 46 46 47 50 54
8 7 6 7 9 9 11 11 10 10 10 12 10 12 11 11 9 13 12 12 17 21 26 26 30 33 35 37 40 40 40 43 42 44 47 49 51 53 54 55 55 56 59 59
11 11 10 9 10 9 12 13 13 15 15 13 17 16 18 22 21 20 27 23 25 29 30 34 39 42 45 45 47 47 47 47 46 50 52 54 57 62 65 65 66 66 65 68
12 14 13 11 11 13 13 16 21 21 21 21 24 25 19 15 20 24 23 26 34 36 37 39 44 49 52 52 53 54 55 59 60 63 66 63 64 69 70 68 68 70 72 73
15 13 14 17 16 18 20 22 21 23 25 25 24 27 25 20 26 24 22 28 35 36 38 39 46 51 53 55 58 62 65 67 68 68 71 72 72 76 76 77 78 80 81 83
17 18 17 15 15 19 20 18 20 21 25 29 29 31 29 27 20 24 33 36 34 37 43 45 51 54 56 58 63 67 69 68 71 71 71 76 78 77 79 81 83 85 88 91
20 20 20 17 19 19 19 23 24 23 27 29 28 34 33 36 34 33 32 37 39 45 50 52 56 57 62 66 68 70 72 72 72 73 77 80 83 85 88 90 93 97 97 97
22 22 22 20 18 19 20 23 26 27 26 31 37 41 44 44 45 45 46 46 48 53 56 57 60 64 68 70 72 75 75 76 77 81 85 87 91 96 99 102 104 106 109 108
21 20 21 20 22 23 23 26 26 28 28 29 37 46 51 50 48 47 49 51 54 60 63 67 70 72 74 76 77 79 82 85 89 91 92 95 99 103 107 109 111 113 115 118
23 21 22 26 25 27 31 33 30 29 28 30 36 51 56 49 48 50 52 55 59 63 68 71 72 74 76 79 82 86 90 92 93 95 98 101 105 110 115 118 121 123 123 123
26 27 26 25 27 34 38 38 37 40 44 46 42 44 49 47 49 51 55 60 65 68 70 73 77 81 82 84 87 91 96 100 103 104 107 111 116 121 124 126 125 123 120 116
29 32 32 31 34 41 49 49 43 39 37 39 35 41 49 52 53 56 60 63 67 70 74 78 84 87 89 92 97 101 104 106 109 113 118 122 125 127 129 126 126 123 117 111
32 37 39 38 43 44 51 50 37 34 37 41 44 46 54 55 57 62 64 70 72 75 80 85 88 91 95 98 101 106 109 109 115 121 127 125 124 125 126 126 119 114 109 106
28 33 37 38 36 30 37 41 42 43 46 46 52 50 58 59 61 64 71 78 81 83 86 90 94 94 99 104 106 105 108 115 122 125 125 123 122 121 116 108 105 104 102 97
23 24 26 31 34 36 43 45 50 53 56 56 58 60 61 64 69 74 79 80 83 90 93 96 99 100 104 109 108 113 118 122 123 120 119 117 115 108 104 100 98 97 94 92
31 32 34 39 42 44 47 48 49 51 53 56 59 64 68 71 75 77 80 82 91 99 101 103 106 110 110 111 116 117 121 119 117 118 115 109 105 101 99 94 87 84 80 78
35 34 38 44 47 50 52 52 55 58 64 65 67 70 74 78 79 85 88 89 100 104 107 108 107 110 113 116 120 122 116 114 112 110 106 102 99 97 95 93 88 83 81 79
41 41 42 43 45 46 62 57 59 63 70 73 73 76 81 83 82 88 95 98 102 111 115 114 115 118 120 122 121 115 113 108 103 98 98 97 96 94 91 87 85 83 81 79
44 46 47 51 50 52 67 63 67 68 70 76 78 81 83 86 86 92 98 104 111 114 118 123 125 123 124 125 119 114 109 103 97 94 94 95 95 94 90 87 84 82 80 79
52 54 56 60 61 61 71 73 74 73 75 79 82 83 86 90 94 98 106 107 112 119 122 129 129 126 126 121 113 112 102 98 95 94 96 96 94 91 86 82 78 77 73 72
57 61 64 66 68 71 77 79 82 82 81 82 83 88 95 100 107 111 112 113 121 127 129 136 132 130 129 120 116 108 100 97 97 97 97 95 92 88 83 77 73 71 69 65
66 68 70 72 74 78 80 85 86 87 85 90 93 100 104 110 115 118 120 123 130 132 139 136 132 133 126 119 111 104 102 100 99 98 95 94 90 84 78 74 70 67 63 59
69 72 74 78 77 85 89 90 91 97 99 99 105 110 114 117 121 125 131 135 138 139 139 132 131 128 120 112 106 104 102 102 100 97 94 90 84 79 73 70 66 62 58 54
74 78 80 83 87 90 93 94 97 100 105 108 114 117 119 124 129 135 139 140 142 139 135 133 127 119 110 106 106 104 101 100 97 94 89 84 80 75 70 65 60 54 50 48
81 84 88 92 94 93 97 98 101 107 113 117 119 122 126 130 133 138 140 140 136 134 133 124 118 114 109 105 101 99 96 92 90 85 81 76 72 69 63 58 54 49 45 45
89 93 98 97 101 101 98 103 106 113 115 118 125 132 135 135 137 139 137 134 135 131 120 117 111 109 106 102 98 95 91 88 82 78 73 70 66 60 56 52 49 45 42 42
Wind_Direction
183 182 123 72 126 187 194 198 202 218 254 269 265 265 255 282 309 329 331 341 340 336 330 327 331 330 325 326 327 323 326 329 327 322 323 323 322 321 319 316 315 313 313 311
200 188 196 194 196 217 223 221 247 276 280 288 296 296 280 262 265 296 311 321 321 320 321 315 324 327 326 322 322 321 323 327 328 327 324 323 321 318 316 314 312 311 311 309
217 219 227 221 219 238 233 243 262 279 274 272 277 289 293 291 290 298 311 303 311 315 318 318 323 325 324 322 320 319 320 325 328 324 320 320 319 318 317 317 315 315 312 309
236 232 239 241 241 256 268 275 278 274 283 271 266 286 282 273 276 282 296 309 311 311 310 318 320 323 321 319 320 318 317 318 319 319 318 318 316 316 316 313 313 312 312 309
262 264 257 253 261 266 276 281 288 273 279 276 278 278 279 277 283 270 266 298 305 307 308 307 308 312 316 317 316 315 317 318 320 318 317 316 316 315 314 312 311 310 309 308
264 267 267 267 272 283 291 290 288 289 291 288 293 291 290 281 266 258 259 288 295 294 297 299 304 309 312 311 311 314 319 316 315 314 311 309 308 307 307 308 309 308 307 307
264 273 278 279 289 282 290 296 301 296 298 294 287 287 289 291 292 293 287 296 299 299 299 299 301 304 306 309 314 314 312 311 310 309 307 307 306 306 307 306 305 305 305 305
257 270 282 290 278 285 289 289 296 298 298 299 299 297 297 302 302 306 308 309 305 302 301 302 303 305 310 311 308 307 306 305 307 308 308 307 306 305 306 306 307 307 306 305
249 251 271 280 281 289 292 290 295 297 294 291 294 299 304 307 305 308 306 308 309 308 310 310 311 310 308 306 305 304 306 309 311 310 309 308 307 307 306 306 305 305 305 305
245 262 274 278 284 291 298 298 291 290 294 297 297 299 302 310 309 309 312 311 310 311 311 309 308 308 308 307 308 310 311 310 309 308 306 306 306 306 305 305 305 304 304 304
248 263 271 275 284 301 304 295 291 296 295 294 303 300 305 309 307 308 308 307 308 309 310 310 312 311 309 309 310 311 311 311 310 309 307 306 306 306 306 305 305 305 305 303
253 258 267 274 287 296 299 297 295 298 299 301 304 303 305 309 310 310 308 309 310 310 309 311 313 312 312 312 312 313 311 309 308 306 306 306 306 307 307 307 306 306 305 304
262 268 274 285 289 296 294 298 303 306 304 301 300 301 301 305 305 306 307 309 311 311 312 313 313 312 312 312 310 308 307 307 308 307 308 308 308 307 307 306 305 305 305 306
280 280 284 291 296 297 298 300 305 306 305 306 304 306 307 308 306 306 308 312 313 314 313 313 311 310 308 308 309 309 308 307 308 308 307 307 307 308 308 308 308 307 306 305
294 293 293 290 293 295 297 297 303 305 305 307 306 307 307 309 309 310 311 313 313 314 314 311 310 310 309 309 309 307 307 308 308 308 307 307 308 309 309 309 307 306 304 304
288 290 292 297 300 303 299 302 303 303 304 305 306 307 309 309 308 310 310 311 315 316 313 312 312 311 310 310 310 310 310 310 310 310 309 309 309 309 308 307 307 307 306 304
291 289 295 298 297 300 296 299 303 307 307 308 307 307 308 307 307 307 309 312 314 316 315 312 312 311 309 308 310 310 310 311 310 309 309 309 310 310 309 308 308 309 308 306
298 298 296 297 298 299 297 299 300 302 303 305 306 306 307 308 310 311 310 311 314 317 319 315 311 309 310 310 310 312 311 312 311 310 309 310 310 309 309 309 309 309 309 308
297 296 297 298 299 301 297 301 302 304 302 303 306 308 310 310 310 310 310 312 313 314 314 315 314 311 310 312 313 314 314 313 311 310 310 309 309 310 310 310 309 308 307 306
294 298 300 302 303 303 298 301 303 305 306 306 307 307 308 309 310 312 312 310 310 310 312 313 314 312 311 313 315 315 313 311 310 310 310 310 310 310 310 310 309 308 307 306
294 298 300 304 304 305 303 305 307 306 306 305 304 307 310 310 310 311 311 311 312 312 312 314 314 313 314 316 316 314 312 311 310 310 311 311 311 313 312 311 311 310 308 307
298 298 299 299 303 301 303 308 307 307 309 306 308 310 311 311 311 311 312 313 313 313 314 314 314 314 315 315 315 313 312 311 312 313 313 313 314 314 313 313 312 311 309 307
297 297 298 299 305 305 310 311 309 309 310 311 311 310 311 311 310 311 313 314 313 312 312 313 314 314 314 314 313 312 313 313 313 314 313 314 315 314 314 314 313 311 309 307
297 296 296 300 302 306 309 308 308 308 308 308 308 310 311 312 312 312 312 311 311 312 313 313 313 312 313 313 312 311 312 313 313 313 314 315 314 314 314 313 312 310 309 307
296 295 297 301 303 308 307 306 306 306 308 308 310 310 310 309 309 310 310 311 312 311 312 312 312 313 313 313 311 311 312 312 313 314 314 314 314 314 314 314 313 312 311 308
296 297 299 303 305 306 304 303 304 305 308 310 311 313 310 308 308 309 310 311 310 311 311 311 311 311 311 311 312 313 314 315 315 314 315 314 315 314 314 313 312 311 309 308